Regional Weather Roundup
Issued by NWS Northern Indiana

Home | Current Version | Previous Version | Text Only | Print | Product List | Glossary Off
Versions: 1 2 3 4 5 6 7 8 9 10 11 12 13 14 15 16 17 18 19 20 21 22 23 24 25 26 27 28 29 30 31 32 33 34 35 36 37 38 39 40 41 42 43 44 45 46 47 48 49 50

000
ASUS43 KIWX 230810
RWRIWX

KIWX WEATHER ROUNDUP
NATIONAL WEATHER SERVICE NORTHERN INDIANA
400 AM EDT WED APR 23 2014

NOTE: "FAIR" INDICATES FEW OR NO CLOUDS BELOW 12,000 FEET WITH NO
SIGNIFICANT WEATHER AND/OR OBSTRUCTIONS TO VISIBILITY.

* THESE STATIONS ARE NOT UNDER NWS QUALITY CONTROL. THEY ALSO MAY NOT
  REPORT WEATHER SUCH AS PRECIPITATION OR FOG.

INZ001>027-230900-
NORTHERN INDIANA

CITY           SKY/WX    TMP DP  RH WIND       PRES   REMARKS
GARY*          CLEAR     39  30  71 N12       30.11S
VALPARAISO     CLEAR     34  28  79 N7        30.08F WCI  28
MICHIGAN CITY* CLEAR     34  28  80 N8        30.10R WCI  27
LAPORTE*       CLEAR     34  28  79 NW9       30.08S WCI  26
SOUTH BEND     CLEAR     36  27  69 N12       30.06S
GOSHEN         CLEAR     37  28  70 N10       30.03R
MONTICELLO*    CLEAR     35  29  80 N7        30.06R WCI  29
LOGANSPORT*    CLEAR     36  28  75 NW8       30.06S
ROCHESTER*     CLEAR     36  30  80 NW8       30.06R
WARSAW*        CLEAR     32  28  86 NW6       30.04R WCI  26
ANGOLA*        CLEAR     36  28  75 N8        30.00R
FORT WAYNE     CLEAR     36  27  69 NW6       30.02R
HUNTINGTON*    FAIR      35  28  74 NW3       30.02S
PERU/GRISSOM   CLEAR     36  31  83 NW8       30.04S
MARION*        CLEAR     36  27  69 N5        30.04R

$$
INZ028>050-230900-
CENTRAL INDIANA

CITY           SKY/WX    TMP DP  RH WIND       PRES   REMARKS
LAFAYETTE      CLEAR     36  27  69 N6        30.07R
KOKOMO*        CLEAR     36  27  69 NW7       30.05R
MUNCIE*        CLEAR     36  29  75 N8        30.02R
INDIANAPOLIS   CLEAR     39  27  62 N10       30.04R

$$
MIZ043>046-050>051-056>058-064>065-071>073-077>080-230900-
SOUTHWEST LOWER MICHIGAN

CITY           SKY/WX    TMP DP  RH WIND       PRES   REMARKS
BATTLE CREEK   CLEAR     34  26  72 NW9       30.03R WCI  27
BENTON HARBOR  CLEAR     34  28  79 N7        30.07S WCI  28
COLDWATER*     CLEAR     34  27  74 N7        30.01R WCI  28
HILLSDALE*     CLEAR     35  27  71 N13       29.99R WCI  26
HOLLAND        CLEAR     36  26  67 NW7       30.08R
GRAND RAPIDS   CLEAR     34  26  72 NW8       30.05R WCI  27
KALAMAZOO      CLEAR     34  26  72 N10       30.04R WCI  26
STURGIS*       CLEAR     34  27  75 N12       30.02R WCI  25
THREE RIVERS*  FAIR      36  27  70 N7        30.04R

$$
OHZ001>008-015>018-024>025-230900-
NORTHWEST OHIO

CITY           SKY/WX    TMP DP  RH WIND       PRES   REMARKS
WAUSEON*       FAIR      36  28  75 N7        29.99R
DEFIANCE       CLEAR     38  27  64 N12       30.00R
FINDLAY        CLEAR     36  29  75 NW6       29.96R
TOLEDO EXPRESS CLEAR     37  27  67 NW10      29.98R
TOLEDO METCALF CLEAR     38  27  64 NW13      29.98S
LIMA           CLEAR     37  30  75 NW8       29.97R

$$
&&



USA.gov is the U.S. government's official web portal to all federal, state and local government web resources and services.